Weather History for Chignik, AK

Change the Weather History Date:

Tuesday, November 1, 2011

  Actual Average Record
Temperature  
Mean Temperature 36 °F -  
Max Temperature 39 °F 40 °F 51 °F (2003)
Min Temperature 33 °F 34 °F 19 °F (2012)
Degree Days  
Heating Degree Days 29    
Moisture  
Dew Point 26 °F    
Average Humidity 68    
Maximum Humidity 81    
Minimum Humidity 56    
Precipitation  
Precipitation 0.00 in - - ()
Sea Level Pressure  
Sea Level Pressure 29.73 in    
Wind  
Wind Speed 15 mph (WNW)    
Max Wind Speed 28 mph    
Max Gust Speed 41 mph    
Visibility 9 miles    
Events      
Averages and records for this station are not official NWS values.
T = Trace of Precipitation, MM = Missing Value Source: NWS Daily Summary

Daily Weather History Graph

Daily Weather History Graph

Search for Another Location

Airport:

Trip Planner

Search our weather history database for the weather conditions in past years. The results will help you decide how hot, cold, wet, or windy it might be!

Date:

Astronomy

Nov. 01, 2011 Rise Set
Actual Time 9:41 AM AKDT 6:51 PM AKDT
Civil Twilight 9:01 AM AKDT 7:31 PM AKDT
Nautical Twilight 8:16 AM AKDT 8:16 PM AKDT
Astronomical Twilight 7:33 AM AKDT 8:59 PM AKDT
Moon 3:45 PM AKDT No Moon Set
Length of Visible Light 10h 30m
Length of Day
9h 10m
Waxing Crescent, 41% of the Moon is Illuminated
Nov 1
Waxing Crescent
Nov 2
First Quarter
Nov 10
Full
Nov 18
Last Quarter
Nov 24
New

Hourly Weather History & Observations

Time (AKDT) Temp. Windchill Dew Point Humidity Pressure Visibility Wind Dir Wind Speed Gust Speed Precip Events Conditions
12:16 AM 37.4 °F 30.8 °F 26.6 °F 65% 29.59 in 10.0 mi West 9.2 mph - N/A   Clear
12:36 AM 37.4 °F 29.3 °F 26.6 °F 65% 29.60 in 10.0 mi West 12.7 mph - N/A   Clear
12:56 AM 37.4 °F 28.5 °F 26.6 °F 65% 29.59 in 10.0 mi West 15.0 mph - N/A   Clear
1:16 AM 39.2 °F 31.2 °F 26.6 °F 61% 29.60 in 10.0 mi WSW 13.8 mph - N/A   Clear
1:36 AM 39.2 °F 33.0 °F 26.6 °F 61% 29.60 in 10.0 mi West 9.2 mph - N/A   Clear
1:56 AM 37.4 °F 30.8 °F 26.6 °F 65% 29.60 in 10.0 mi West 9.2 mph - N/A   Clear
2:16 AM 39.2 °F 33.0 °F 26.6 °F 61% 29.60 in 10.0 mi WSW 9.2 mph - N/A   Scattered Clouds
2:36 AM 37.4 °F 32.8 °F 26.6 °F 65% 29.60 in 10.0 mi West 5.8 mph - N/A   Partly Cloudy
2:56 AM 39.2 °F 32.0 °F 26.6 °F 61% 29.61 in 10.0 mi West 11.5 mph 19.6 mph N/A   Partly Cloudy
3:16 AM 37.4 °F 29.8 °F 28.4 °F 70% 29.62 in 10.0 mi West 11.5 mph 18.4 mph N/A   Mostly Cloudy
3:36 AM 37.4 °F 29.3 °F 26.6 °F 65% 29.61 in 10.0 mi West 12.7 mph 16.1 mph N/A   Scattered Clouds
3:56 AM 37.4 °F 29.8 °F 28.4 °F 70% 29.62 in 10.0 mi WNW 11.5 mph - N/A   Mostly Cloudy
4:16 AM 37.4 °F 28.9 °F 28.4 °F 70% 29.62 in 10.0 mi West 13.8 mph 19.6 mph N/A   Overcast
4:36 AM 37.4 °F 28.2 °F 28.4 °F 70% 29.63 in 10.0 mi West 16.1 mph 26.5 mph N/A   Mostly Cloudy
4:56 AM 35.6 °F 28.0 °F 28.4 °F 75% 29.63 in 6.0 mi West 10.4 mph 19.6 mph N/A   Overcast
5:16 AM 37.4 °F 29.3 °F 30.2 °F 75% 29.63 in 10.0 mi West 12.7 mph 20.7 mph N/A   Overcast
5:36 AM 35.6 °F 25.5 °F 30.2 °F 81% 29.64 in 5.0 mi WNW 17.3 mph 21.9 mph N/A   Overcast
5:56 AM 37.4 °F 28.2 °F 28.4 °F 70% 29.63 in 10.0 mi West 16.1 mph 27.6 mph N/A   Mostly Cloudy
6:16 AM 37.4 °F 28.5 °F 28.4 °F 70% 29.63 in 10.0 mi West 15.0 mph 27.6 mph N/A   Overcast
6:36 AM 37.4 °F 28.9 °F 28.4 °F 70% 29.64 in 10.0 mi WNW 13.8 mph 26.5 mph N/A   Mostly Cloudy
6:56 AM 35.6 °F 25.5 °F 28.4 °F 75% 29.64 in 10.0 mi West 17.3 mph 33.4 mph N/A   Mostly Cloudy
7:16 AM 37.4 °F 30.8 °F 26.6 °F 65% 29.64 in 10.0 mi WNW 9.2 mph 26.5 mph N/A   Mostly Cloudy
7:36 AM 37.4 °F 26.4 °F 26.6 °F 65% 29.64 in 10.0 mi West 23.0 mph 26.5 mph N/A   Mostly Cloudy
7:56 AM 35.6 °F 24.2 °F 28.4 °F 75% 29.64 in 9.0 mi West 21.9 mph 29.9 mph N/A   Overcast
8:16 AM 35.6 °F 24.8 °F 28.4 °F 75% 29.64 in 9.0 mi West 19.6 mph 31.1 mph N/A   Mostly Cloudy
8:36 AM 35.6 °F 23.7 °F 28.4 °F 75% 29.65 in 4.0 mi West 24.2 mph 33.4 mph N/A   Overcast
8:56 AM 35.6 °F 23.2 °F 28.4 °F 75% 29.65 in 5.0 mi West 26.5 mph 35.7 mph N/A   Overcast
9:16 AM 35.6 °F 23.0 °F 28.4 °F 75% 29.66 in 5.0 mi West 27.6 mph 41.4 mph N/A   Overcast
9:36 AM 35.6 °F 23.2 °F 28.4 °F 75% 29.67 in 5.0 mi West 26.5 mph 40.3 mph N/A   Overcast
9:56 AM 35.6 °F 23.4 °F 28.4 °F 75% 29.68 in 4.0 mi West 25.3 mph 35.7 mph N/A   Overcast
10:16 AM 35.6 °F 24.2 °F 28.4 °F 75% 29.69 in 1.8 mi West 21.9 mph 36.8 mph N/A   Overcast
10:36 AM 35.6 °F 26.2 °F 28.4 °F 75% 29.70 in 3.0 mi West 15.0 mph - N/A   Overcast
10:56 AM 35.6 °F 27.5 °F 28.4 °F 75% 29.72 in 10.0 mi North 11.5 mph 25.3 mph N/A   Overcast
11:16 AM 33.8 °F 23.2 °F 28.4 °F 81% 29.73 in 10.0 mi North 17.3 mph - N/A   Overcast
11:36 AM 33.8 °F 22.2 °F 28.4 °F 81% 29.74 in 10.0 mi North 20.7 mph 25.3 mph N/A   Overcast
11:56 AM 33.8 °F 22.5 °F 26.6 °F 75% 29.76 in 10.0 mi North 19.6 mph - N/A   Mostly Cloudy
12:16 PM 33.8 °F 21.0 °F 26.6 °F 75% 29.77 in 10.0 mi North 25.3 mph 31.1 mph N/A   Overcast
12:36 PM 33.8 °F 20.8 °F 26.6 °F 75% 29.78 in 10.0 mi North 26.5 mph 32.2 mph N/A   Overcast
12:56 PM 33.8 °F 20.8 °F 26.6 °F 75% 29.79 in 10.0 mi North 26.5 mph 31.1 mph N/A   Overcast
1:16 PM 33.8 °F 22.5 °F 24.8 °F 70% 29.81 in 10.0 mi North 19.6 mph 27.6 mph N/A   Overcast
1:36 PM 33.8 °F 22.2 °F 24.8 °F 70% 29.81 in 10.0 mi North 20.7 mph 27.6 mph N/A   Overcast
1:56 PM 33.8 °F 22.5 °F 24.8 °F 70% 29.82 in 10.0 mi North 19.6 mph 26.5 mph N/A   Mostly Cloudy
2:16 PM 33.8 °F 23.9 °F 23.0 °F 65% 29.84 in 10.0 mi NW 15.0 mph 26.5 mph N/A   Mostly Cloudy
2:36 PM 33.8 °F 22.5 °F 21.2 °F 60% 29.84 in 10.0 mi WNW 19.6 mph 29.9 mph N/A   Overcast
2:56 PM 33.8 °F 22.8 °F 19.4 °F 56% 29.85 in 10.0 mi WNW 18.4 mph 26.5 mph N/A   Overcast
3:16 PM 35.6 °F 24.8 °F 21.2 °F 56% 29.85 in 10.0 mi WNW 19.6 mph 31.1 mph N/A   Overcast
3:36 PM 35.6 °F 25.5 °F 21.2 °F 56% 29.85 in 10.0 mi NW 17.3 mph 27.6 mph N/A   Overcast
3:56 PM 35.6 °F 24.0 °F 21.2 °F 56% 29.84 in 10.0 mi NW 23.0 mph 35.7 mph N/A   Mostly Cloudy
4:16 PM 35.6 °F 27.5 °F 24.8 °F 65% 29.86 in 10.0 mi West 11.5 mph 26.5 mph N/A   Mostly Cloudy
4:36 PM 33.8 °F 24.8 °F 24.8 °F 70% 29.87 in 10.0 mi WNW 12.7 mph 20.7 mph N/A   Mostly Cloudy
4:56 PM 33.8 °F 22.8 °F 24.8 °F 70% 29.88 in 6.0 mi WNW 18.4 mph 31.1 mph N/A   Overcast
5:16 PM 33.8 °F 23.9 °F 23.0 °F 65% 29.90 in 10.0 mi WNW 15.0 mph 29.9 mph N/A   Mostly Cloudy
5:36 PM 35.6 °F 24.8 °F 21.2 °F 56% 29.91 in 10.0 mi West 19.6 mph 29.9 mph N/A   Overcast
5:56 PM 33.8 °F 23.5 °F 23.0 °F 65% 29.92 in 10.0 mi West 16.1 mph 29.9 mph N/A   Overcast
6:16 PM 33.8 °F 22.5 °F 21.2 °F 60% 29.93 in 10.0 mi West 19.6 mph 38.0 mph N/A   Overcast
6:36 PM 33.8 °F 23.2 °F 21.2 °F 60% 29.95 in 10.0 mi West 17.3 mph 31.1 mph N/A   Overcast
6:56 PM 33.8 °F 23.2 °F 21.2 °F 60% 29.97 in 10.0 mi WNW 17.3 mph 29.9 mph N/A   Overcast
7:16 PM 33.8 °F 21.0 °F 21.2 °F 60% 29.98 in 10.0 mi West 25.3 mph 34.5 mph N/A   Overcast
7:36 PM 33.8 °F 24.3 °F 21.2 °F 60% 30.00 in 10.0 mi WNW 13.8 mph 29.9 mph N/A   Overcast
7:56 PM 33.8 °F 22.2 °F 21.2 °F 60% 30.02 in 10.0 mi WNW 20.7 mph 31.1 mph N/A   Overcast
8:16 PM 33.8 °F 21.0 °F 21.2 °F 60% 30.03 in 10.0 mi NW 25.3 mph 42.6 mph N/A   Overcast
8:36 PM 33.8 °F 22.2 °F 19.4 °F 56% 30.04 in 10.0 mi WNW 20.7 mph 43.7 mph N/A   Overcast
8:56 PM 33.8 °F 22.5 °F 19.4 °F 56% 30.07 in 10.0 mi West 19.6 mph 29.9 mph N/A   Overcast
9:16 PM 33.8 °F 21.9 °F 19.4 °F 56% 30.08 in 10.0 mi West 21.9 mph 29.9 mph N/A   Overcast
9:36 PM 33.8 °F 21.6 °F 21.2 °F 60% 30.09 in 10.0 mi NW 23.0 mph 33.4 mph N/A   Overcast
9:56 PM 33.8 °F 21.9 °F 21.2 °F 60% 30.09 in 10.0 mi West 21.9 mph 35.7 mph N/A   Overcast
10:16 PM 33.8 °F 22.2 °F 21.2 °F 60% 30.09 in 10.0 mi WNW 20.7 mph 35.7 mph N/A   Overcast
10:36 PM 33.8 °F 21.9 °F 21.2 °F 60% 30.09 in 10.0 mi WNW 21.9 mph 39.1 mph N/A   Overcast
10:56 PM 33.8 °F 20.1 °F 21.2 °F 60% 30.09 in 10.0 mi WNW 29.9 mph 46.0 mph N/A   Overcast